Regional Weather Roundup
Issued by NWS

Home | Current Version | Previous Version | Graphics & Text | Print | Product List | Glossary Off
Versions: 1 2 3 4 5 6 7 8 9 10 11 12 13 14 15 16 17 18 19 20 21 22 23 24 25 26 27 28 29 30 31 32 33 34 35 36 37 38 39 40 41 42 43 44 45 46 47 48 49 50

933
ASUS43 KDMX 232006
RWRIA

WEATHER ROUNDUP FOR IOWA
NATIONAL WEATHER SERVICE DES MOINES IA
300 PM CDT FRI JUN 23 2017

NOTE: "FAIR" INDICATES FEW OR NO CLOUDS BELOW 12,000 FEET WITH NO
SIGNIFICANT WEATHER AND/OR OBSTRUCTIONS TO VISIBILITY.

* - THESE STATIONS ARE NOT NWS STATIONS...THUS NOT UNDER NWS
QUALITY CONTROL.  THEY ALSO DO NOT REPORT WEATHER SUCH
AS PRECIPITATION OR FOG.

IAZ001>003-012>014-020>022-031>034-043>046-232100-
   NORTHWEST IOWA

CITY           SKY/WX    TMP DP  RH WIND       PRES   REMARKS
CARROLL *      MOSUNNY   73  50  43 NW22G28   29.94S
CHEROKEE *     CLOUDY    67  53  60 N18G25    29.97S
DENISON *      MOSUNNY   72  50  46 NW17G28   29.99S
LE MARS *      PTSUNNY   70  52  52 NW20G31   29.99S
ORANGE CITY *  PTSUNNY   66  52  59 NW13G24   29.99S
SHELDON *      CLOUDY    68  50  52 NW18G28   29.96S
SIOUX CITY     PTSUNNY   72  51  47 NW23G29   29.98S
SPENCER        CLOUDY    69  51  52 NW21G30   29.95S
STORM LAKE *     N/A     68  50  52 NW21      29.97R
$$

IAZ055>058-069>071-079>083-090>094-232100-
   SOUTHWEST IOWA

CITY           SKY/WX    TMP DP  RH WIND       PRES   REMARKS
ATLANTIC *     PTSUNNY   70  54  56 NW20      29.97S
AUDUBON *      MOSUNNY   72  54  53 NW10G20   29.97F
CLARINDA *     MOSUNNY   73  54  49 NW15G25   29.99F
COUNCIL BLFS * MOSUNNY   72  52  49 NW17      29.99F
CRESTON *      PTSUNNY   72  54  53 NW17G25   29.96S
HARLAN  *      MOSUNNY   70  54  56 NW18G26   30.01S
LAMONI         SUNNY     74  54  49 NW18G25   29.94R
RED OAK *      CLOUDY    73  55  53 NW18      29.98S
SHENANDOAH *   MOSUNNY   72  54  53 NW14G23   29.99S
$$

IAZ047>049-059>061-072>074-084-232100-
   CENTRAL IOWA

CITY           SKY/WX    TMP DP  RH WIND       PRES   REMARKS
AMES           PTSUNNY   73  54  51 NW18G31   29.90S
ANKENY *       PTSUNNY   73  54  49 NW18G26   29.91S
BOONE *        CLOUDY    73  54  49 NW14G22   29.90S
CHARITON *     MOSUNNY   75  52  43 NW21G28   29.89F
DES MOINES     PTSUNNY   73  52  47 NW21G29   29.90R
GRINNELL*      CLOUDY    73  53  49 NW21G29   29.89R
KNOXVILLE *    CLOUDY    73  54  49 NW24G30   29.88R
MARSHALLTOWN   CLOUDY    70  55  59 NW23G29   29.87S
NEWTON *       CLOUDY    72  54  53 NW15G23   29.89R
PELLA *        CLOUDY    76  53  44 NW20      29.89R
PERRY *        PTSUNNY   73  53  50 NW16      29.93S
$$

IAZ004>006-015-016-023>025-035-036-232100-
   NORTH CENTRAL IOWA

CITY           SKY/WX    TMP DP  RH WIND       PRES   REMARKS
ALGONA *       PTSUNNY   70  54  56 NW17G25   29.91F
CLARION *        N/A     68  54  60 NW21G30   29.91R
ESTHERVILLE    CLOUDY    66  54  65 NW15      29.92S
FORT DODGE *   CLOUDY    70  52  52 NW15G22   29.92F
MASON CITY     CLOUDY    64  53  67 NW18G29   29.91R
FOREST CITY *  CLOUDY    66  48  52 NW13G20   29.89S
WEBSTER CITY * CLOUDY    70  54  56 NW20G29   29.89S
IOWA FALLS *   CLOUDY    71  55  58 NW22G29   29.90R
$$

IAZ007>011-017>019-026>030-037>042-050>054-066-232100-
   NORTHEAST IOWA

CITY           SKY/WX    TMP DP  RH WIND       PRES   REMARKS
CEDAR RAPIDS   MOSUNNY   74  58  57 NW23G31   29.82R
CHARLES CITY * CLOUDY    70  55  60 W22       29.85S
CLINTON *      PTSUNNY   80  58  46 W22G28    29.76S HX  80
DECORAH *      CLOUDY    68  54  60 NW9G18    29.80F
DUBUQUE        MOSUNNY   75  54  47 NW23G29   29.78R
MONTICELLO *   MOSUNNY   75  57  53 NW23G32   29.80R
OELWEIN *      PTSUNNY   70  55  60 NW22G30   29.83F
WATERLOO       CLOUDY    71  54  54 NW16G30   29.83F
$$

IAZ064-065-067-068-078-232100-
   EAST CENTRAL IOWA

CITY           SKY/WX    TMP DP  RH WIND       PRES   REMARKS
DAVENPORT      MOSUNNY   79  55  43 W15G23    29.77S
IOWA CITY      SUNNY     79  54  41 NW22G30   29.83R
MT. PLEASANT * CLOUDY    81  48  31 W17       29.81S HX  80
MUSCATINE *    CLOUDY    82  52  34 NW15G26   29.79R HX  81
QUAD CITIES    CLOUDY    82  52  35 W15       29.76S HX  81
$$

IAZ062-063-075>077-085>089-095>099-232100-
   SOUTHEAST IOWA

CITY           SKY/WX    TMP DP  RH WIND       PRES   REMARKS
BURLINGTON     CLOUDY    81  56  42 NW12G23   29.81R HX  81
FAIRFIELD *    SUNNY     79  50  36 NW18G30   29.84R
FORT MADISON * CLOUDY    82  54  36 NW16G22   29.82R HX  81
KEOKUK *       CLOUDY    81  55  41 NW13      29.82R HX  80
OSKALOOSA *      N/A     78  53  42 NW18G28   29.86S
CENTERVILLE *    N/A     75  54  46 NW23G30   29.91R
OTTUMWA        SUNNY     80  53  39 NW18G33   29.85R HX  80
WASHINGTON *   SUNNY     79  52  38 W22G31    29.83R
$$

ABBREVIATIONS USED IN REMARKS
   TC - TEMPERATURES IN CELSIUS
  WCI - WIND CHILL INDEX
   HX - HEAT INDEX
  VSB - VISIBILITY
$$





USA.gov is the U.S. government's official web portal to all federal, state and local government web resources and services.